Terminal Aerodrome Forecast
Issued by NWS St Louis, MO

Home | Current Version | Previous Version | Text Only | Print | Product List | Glossary On
Versions: 1 2 3 4 5 6 7 8 9 10 11 12 13 14 15 16 17 18 19 20 21 22 23 24 25
000
FTUS43 KLSX 201800 AAA
TAFSTL
TAF AMD
KSTL 201857Z 2019/2124 15004KT P6SM OVC035
     FM202000 17006KT P6SM BKN020 OVC050
     FM210200 15005KT P6SM OVC025=

USA.gov is the U.S. government's official web portal to all federal, state and local government web resources and services.